• In Uzbekistan
  • List of Countries
  • For 7 days
  • Water Temperature
  • Satellite Maps
  • Weather Map
  • Weather Widgets
  • user-avatar
    Login

    Hourly Weather Wiktoria

    Today, 18 August, Friday

    Time Temperature Precipitation Wind Pressure Humidity
    00:00 +4°C° 0.1 mm 6 mps 743 mmHg 90%
    01:00 +5°C° 0.1 mm 5 mps 743 mmHg 91%
    02:00 +3°C° 0 mm 5 mps 743 mmHg 91%
    03:00 +3°C° 0 mm 5 mps 744 mmHg 91%
    04:00 +3°C° 0 mm 3 mps 744 mmHg 93%
    05:00 +3°C° 0 mm 4 mps 744 mmHg 93%
    06:00 +3°C° 0 mm 4 mps 745 mmHg 92%
    07:00 +2°C° 0 mm 5 mps 745 mmHg 91%
    08:00 +4°C° 0 mm 6 mps 745 mmHg 85%
    09:00 +6°C° 0 mm 7 mps 746 mmHg 79%
    10:00 +7°C° 0 mm 9 mps 747 mmHg 72%
    11:00 +7°C° 0.3 mm 8 mps 747 mmHg 72%
    12:00 +9°C° 0.3 mm 8 mps 747 mmHg 73%
    13:00 +9°C° 0.3 mm 8 mps 747 mmHg 74%
    14:00 +9°C° 0.5 mm 7 mps 747 mmHg 76%
    15:00 +8°C° 0.5 mm 7 mps 748 mmHg 79%
    16:00 +8°C° 0 mm 6 mps 749 mmHg 82%
    17:00 +7°C° 0.1 mm 5 mps 749 mmHg 83%
    18:00 +6°C° 0.1 mm 4 mps 750 mmHg 85%
    19:00 +5°C° 0.1 mm 4 mps 751 mmHg 86%
    20:00 +4°C° 0 mm 4 mps 751 mmHg 87%
    21:00 +4°C° 0 mm 4 mps 752 mmHg 89%
    22:00 +3°C° 0 mm 4 mps 752 mmHg 90%
    23:00 +3°C° 0 mm 4 mps 753 mmHg 90%

    Tomorrow, 19 August, Saturday

    Time Temperature Precipitation Wind Pressure Humidity
    00:00 +2°C° 0 mm 3 mps 753 mmHg 91%
    01:00 +2°C° 0 mm 3 mps 753 mmHg 92%
    02:00 +2°C° 0 mm 3 mps 754 mmHg 92%
    03:00 +2°C° 0 mm 3 mps 754 mmHg 93%
    04:00 +1°C° 0 mm 3 mps 754 mmHg 94%
    05:00 +1°C° 0 mm 3 mps 755 mmHg 94%
    06:00 +1°C° 0 mm 3 mps 755 mmHg 94%
    07:00 +1°C° 0 mm 3 mps 756 mmHg 94%
    08:00 +3°C° 0 mm 3 mps 756 mmHg 88%
    09:00 +5°C° 0 mm 4 mps 756 mmHg 82%
    10:00 +7°C° 0 mm 4 mps 757 mmHg 75%
    11:00 +8°C° 0.1 mm 4 mps 757 mmHg 71%
    12:00 +10°C° 0.1 mm 4 mps 757 mmHg 66%
    13:00 +11°C° 0.1 mm 4 mps 757 mmHg 62%
    14:00 +11°C° 0.1 mm 4 mps 756 mmHg 64%
    15:00 +11°C° 0.1 mm 4 mps 756 mmHg 66%
    16:00 +11°C° 0.1 mm 4 mps 756 mmHg 69%
    17:00 +9°C° 0 mm 3 mps 757 mmHg 74%
    18:00 +7°C° 0 mm 3 mps 757 mmHg 80%
    19:00 +4°C° 0 mm 3 mps 758 mmHg 85%
    20:00 +4°C° 0 mm 3 mps 758 mmHg 87%
    21:00 +4°C° 0 mm 2 mps 758 mmHg 89%
    22:00 +3°C° 0 mm 2 mps 759 mmHg 90%
    23:00 +3°C° 0 mm 2 mps 759 mmHg 91%

    Day after tomorrow, 20 August, Sunday

    Time Temperature Precipitation Wind Pressure Humidity
    00:00 +2°C° 0 mm 2 mps 759 mmHg 91%
    01:00 +2°C° 0 mm 2 mps 759 mmHg 92%
    02:00 +2°C° 0 mm 2 mps 758 mmHg 92%
    03:00 +1°C° 0 mm 2 mps 758 mmHg 93%
    04:00 +1°C° 0 mm 2 mps 758 mmHg 93%
    05:00 +2°C° 0 mm 1 mps 758 mmHg 93%
    06:00 +2°C° 0 mm 1 mps 758 mmHg 93%
    07:00 +2°C° 0 mm 1 mps 758 mmHg 93%
    08:00 +4°C° 0 mm 1 mps 758 mmHg 87%
    09:00 +6°C° 0 mm 1 mps 758 mmHg 81%
    10:00 +9°C° 0 mm 1 mps 758 mmHg 74%
    11:00 +10°C° 0 mm 1 mps 758 mmHg 69%
    12:00 +11°C° 0 mm 1 mps 757 mmHg 63%
    13:00 +12°C° 0 mm 1 mps 756 mmHg 58%
    14:00 +12°C° 0 mm 1 mps 755 mmHg 58%
    15:00 +12°C° 0 mm 1 mps 755 mmHg 58%
    16:00 +11°C° 0 mm 0 mps 754 mmHg 58%
    17:00 +10°C° 0 mm 1 mps 754 mmHg 65%
    18:00 +8°C° 0 mm 1 mps 754 mmHg 71%
    19:00 +6°C° 0 mm 1 mps 754 mmHg 77%
    20:00 +6°C° 0 mm 1 mps 754 mmHg 78%
    21:00 +6°C° 0 mm 1 mps 754 mmHg 79%
    22:00 +4°C° 0 mm 2 mps 754 mmHg 80%
    23:00 +5°C° 0 mm 2 mps 753 mmHg 80%

    21 August, Monday

    Time Temperature Precipitation Wind Pressure Humidity
    00:00 +5°C° 0 mm 2 mps 753 mmHg 80%
    01:00 +4°C° 0 mm 3 mps 752 mmHg 79%
    02:00 +4°C° 0 mm 3 mps 752 mmHg 79%
    03:00 +4°C° 0 mm 3 mps 752 mmHg 78%
    04:00 +4°C° 0 mm 3 mps 751 mmHg 78%
    05:00 +4°C° 0.5 mm 3 mps 751 mmHg 83%
    06:00 +4°C° 0.5 mm 3 mps 751 mmHg 88%
    07:00 +3°C° 0.5 mm 4 mps 751 mmHg 93%
    08:00 +3°C° 0.7 mm 4 mps 751 mmHg 94%
    09:00 +3°C° 0.7 mm 5 mps 750 mmHg 94%
    10:00 +3°C° 0.7 mm 5 mps 750 mmHg 94%
    11:00 +5°C° 0.2 mm 5 mps 750 mmHg 93%
    12:00 +6°C° 0.2 mm 5 mps 749 mmHg 91%
    13:00 +6°C° 0.2 mm 5 mps 748 mmHg 90%
    14:00 +7°C° 0.1 mm 5 mps 748 mmHg 89%
    15:00 +7°C° 0.1 mm 5 mps 748 mmHg 89%
    16:00 +7°C° 0.1 mm 5 mps 747 mmHg 88%
    17:00 +6°C° 0.1 mm 5 mps 747 mmHg 90%
    18:00 +6°C° 0.1 mm 5 mps 748 mmHg 91%
    19:00 +5°C° 0.1 mm 5 mps 748 mmHg 93%
    20:00 +5°C° 0.2 mm 5 mps 748 mmHg 93%
    21:00 +5°C° 0.2 mm 5 mps 748 mmHg 92%
    22:00 +5°C° 0.2 mm 5 mps 748 mmHg 92%
    23:00 +5°C° 0 mm 4 mps 748 mmHg 92%

    22 August, Tuesday

    Time Temperature Precipitation Wind Pressure Humidity
    00:00 +5°C° 0 mm 4 mps 748 mmHg 92%
    01:00 +5°C° 0 mm 4 mps 748 mmHg 92%
    02:00 +5°C° 0 mm 3 mps 748 mmHg 93%
    03:00 +4°C° 0 mm 3 mps 748 mmHg 94%
    04:00 +4°C° 0 mm 2 mps 748 mmHg 94%
    05:00 +4°C° 0 mm 2 mps 748 mmHg 94%
    06:00 +3°C° 0 mm 2 mps 749 mmHg 94%
    07:00 +4°C° 0 mm 1 mps 749 mmHg 93%
    08:00 +6°C° 0 mm 1 mps 750 mmHg 89%
    09:00 +8°C° 0 mm 1 mps 750 mmHg 84%
    10:00 +10°C° 0 mm 1 mps 750 mmHg 79%
    11:00 +10°C° 0 mm 2 mps 750 mmHg 76%
    12:00 +12°C° 0 mm 2 mps 750 mmHg 73%
    13:00 +14°C° 0 mm 2 mps 749 mmHg 70%
    14:00 +14°C° 0 mm 2 mps 750 mmHg 72%
    15:00 +13°C° 0 mm 2 mps 750 mmHg 75%
    16:00 +12°C° 0 mm 3 mps 750 mmHg 78%
    17:00 +12°C° 0 mm 2 mps 751 mmHg 83%
    18:00 +9°C° 0 mm 2 mps 751 mmHg 88%
    19:00 +9°C° 0 mm 1 mps 752 mmHg 92%
    20:00 +9°C° 0 mm 1 mps 752 mmHg 93%
    21:00 +9°C° 0 mm 1 mps 753 mmHg 93%
    22:00 +9°C° 0 mm 1 mps 753 mmHg 93%
    23:00 +8°C° 0 mm 1 mps 753 mmHg 94%

    23 August, Wednesday

    Time Temperature Precipitation Wind Pressure Humidity
    00:00 +8°C° 0 mm 1 mps 754 mmHg 95%
    01:00 +8°C° 0 mm 1 mps 754 mmHg 95%
    02:00 +8°C° 0 mm 1 mps 754 mmHg 95%
    03:00 +7°C° 0 mm 1 mps 754 mmHg 95%
    04:00 +7°C° 0 mm 1 mps 754 mmHg 95%
    05:00 +7°C° 0 mm 1 mps 755 mmHg 95%
    06:00 +7°C° 0 mm 1 mps 755 mmHg 95%
    07:00 +7°C° 0 mm 1 mps 756 mmHg 95%
    08:00 +7°C° 0 mm 2 mps 756 mmHg 90%
    09:00 +8°C° 0 mm 2 mps 756 mmHg 85%
    10:00 +10°C° 0 mm 2 mps 757 mmHg 80%
    11:00 +12°C° 0 mm 2 mps 756 mmHg 73%
    12:00 +12°C° 0 mm 2 mps 756 mmHg 66%
    13:00 +13°C° 0 mm 2 mps 756 mmHg 59%
    14:00 +13°C° 0 mm 2 mps 756 mmHg 61%
    15:00 +12°C° 0 mm 3 mps 756 mmHg 62%
    16:00 +12°C° 0 mm 3 mps 756 mmHg 64%
    17:00 +10°C° 0 mm 2 mps 757 mmHg 68%
    18:00 +8°C° 0 mm 2 mps 757 mmHg 73%
    19:00 +7°C° 0 mm 2 mps 758 mmHg 77%
    20:00 +6°C° 0 mm 2 mps 758 mmHg 79%
    21:00 +5°C° 0 mm 2 mps 758 mmHg 81%
    22:00 +5°C° 0 mm 2 mps 759 mmHg 83%
    23:00 +4°C° 0 mm 2 mps 759 mmHg 84%
    Show more